CAPE
331 335 283 492 1028 1259 1334 1375 1237 888 831 973 907 1602 1933 2096 2101 2173 2192 1933 1788 1709 2086 2233 2017 2007 1784 1315 1207 1452 1603 1745 1838 1900 1894 2060 2085 2119 2171 2192 2173 2140 1590
313 287 266 362 915 1266 1453 1455 1183 1176 1084 1118 1360 1419 1673 1955 2226 2231 2398 2349 2181 2216 2068 2097 2125 2394 2370 2241 2121 2195 2225 2224 2187 2206 2217 2179 2212 2272 2139 1969 1826 1889 1919
431 412 414 413 724 1109 1353 1598 1442 1338 1225 1223 1488 1593 1756 1843 2011 2194 2300 2516 2464 2380 2380 2356 2323 2283 2338 2320 2373 2490 2541 2505 2491 2438 2383 2193 2236 1953 1548 1284 1275 1360 1755
596 543 509 473 497 768 1214 1444 1659 1544 1775 1657 1559 1772 1801 1953 1910 1992 2180 2283 2298 2382 2415 2392 2403 2420 2412 2418 2479 2619 2653 2562 2515 2460 2275 2008 1560 1441 1224 1205 1220 1462 1631
791 718 578 522 458 496 721 1126 1332 1548 1454 1741 1884 1795 1754 1740 1840 1976 2036 2134 2189 2207 2171 2190 2253 2290 2338 2401 2451 2526 2308 2285 2209 2033 1931 1868 1756 1641 1476 1241 1250 1558 1608
815 903 836 750 671 562 464 532 744 949 1165 1298 1306 1604 1722 1805 1824 1830 1822 2047 2135 2179 2233 2287 2115 2031 2086 2159 2207 2151 2039 2294 2152 1810 1943 1988 2213 2116 1717 1190 1414 1612 1415
651 675 869 979 929 905 810 648 487 509 600 712 822 1102 1310 1582 1619 1843 1917 1882 1837 1835 1951 2029 2079 1935 1831 1913 1815 1722 1669 1670 1726 1872 1940 1999 1942 1710 1513 1327 1457 1562 1358
645 678 687 852 1101 1101 1196 1087 939 805 702 581 495 484 702 889 924 1261 1622 1697 1711 1870 1955 2036 2003 1992 1948 1745 1632 1569 1505 1431 1309 1177 1174 1199 1301 1217 1270 1174 1340 1426 1464
854 750 733 889 1018 1328 1297 1417 1380 1285 1252 1071 992 790 658 726 671 731 871 1006 1158 1460 1612 1666 1717 1788 1601 1546 1487 1405 1436 1266 1394 1403 1485 1525 1397 1308 1119 1449 1340 1305 1341
1986 1584 1315 1314 1432 1460 1531 1647 1722 1679 1573 1497 1468 1386 1228 1192 1207 1240 1170 1008 949 1077 1237 1274 1069 1155 1231 1260 1196 1308 1628 1785 1937 2079 1968 1819 1610 1360 1464 1475 1124 1188 1365
1648 1790 1950 2003 1965 1851 1621 1682 1718 1729 1845 1860 1815 1713 1643 1582 1491 1392 1335 1320 1349 1363 1399 1480 1482 1399 1485 1642 1777 1926 2048 2231 2297 2384 2330 2182 1856 1555 1658 959 814 1027 540
759 972 1186 1397 1623 1829 1967 2044 2093 2057 1964 1858 1680 1624 1663 1629 1573 1470 1397 1408 1426 1466 1545 1590 1646 1773 1885 1999 2114 2234 2347 2482 2620 2748 2505 2074 1897 1580 1548 1021 765 539 487
207 479 978 1390 1686 1861 2108 2541 2721 2427 2333 2269 2182 1766 1733 1678 1668 1708 1548 1614 1626 1633 1770 1858 1966 2065 2156 2250 2340 2399 2398 2421 2389 2216 1947 1800 1749 1414 1365 1064 803 592 590
5 21 146 556 1064 1734 2163 2405 2952 2910 2701 2449 2498 2405 2212 2014 1784 1872 1788 1960 1903 1969 2093 2165 2146 2129 2109 2025 2294 2449 2339 2255 1934 1597 1533 1444 1275 1106 1158 954 725 681 526
0 0 0 9 157 538 1231 1351 1690 2181 2619 2649 2593 2531 2452 2453 2328 2071 2131 2468 2455 2435 2373 2329 2249 2221 2130 2153 2172 2120 1392 673 644 754 926 1055 1089 871 1069 875 999 648 742
0 0 0 0 2 18 82 472 1041 1226 1697 1833 2356 2583 2840 2668 2643 2609 2612 2587 2568 2569 2635 2603 2325 1968 1965 1926 1944 1664 347 150 102 44 733 860 878 797 942 878 888 571 538
0 0 0 0 0 0 0 7 255 662 1112 1416 1659 1811 1825 2150 2505 2634 2702 2672 2583 2537 2590 2674 2507 2544 2328 1989 1921 1281 433 402 504 854 891 788 640 784 1006 996 718 774 332
0 0 0 0 0 0 0 0 5 42 388 743 1017 1246 1462 1579 1732 1894 2003 2077 2171 2305 2357 2385 2475 2548 2377 2183 1542 1426 672 832 651 859 624 502 522 591 808 859 745 638 373
0 0 0 0 0 0 0 0 0 1 84 168 430 664 705 950 1258 1528 1702 1677 1665 1911 1959 2027 2031 2347 2430 2200 1726 1343 908 1079 1021 883 560 442 349 322 474 698 691 335 211
0 0 0 0 0 0 0 0 0 0 0 15 120 298 378 337 576 799 881 874 1075 1147 1377 1253 1497 1824 2053 1918 1220 1189 1171 1170 1032 753 563 433 413 237 393 472 305 226 130
0 0 0 0 0 0 0 0 0 0 0 0 0 40 101 140 259 437 412 455 726 831 835 868 902 768 912 905 831 874 944 963 829 574 471 524 348 336 320 150 196 101 99
0 0 0 0 0 0 0 0 0 0 0 0 0 0 0 8 122 466 699 710 638 821 856 663 604 917 958 834 607 679 856 898 724 511 442 311 253 183 78 103 87 72 84
0 0 0 0 0 0 0 0 0 0 0 0 0 0 0 0 0 104 433 612 596 530 512 417 518 754 791 687 666 613 485 489 238 77 69 54 284 84 78 55 55 107 104
0 0 0 0 0 0 0 0 0 0 0 0 0 0 0 0 0 0 11 358 338 393 371 384 463 598 726 575 611 499 346 231 132 56 13 9 24 45 64 76 82 82 116
0 0 0 0 0 0 0 0 0 0 0 0 0 0 0 0 0 0 0 19 168 216 150 338 354 321 296 452 344 371 288 333 245 173 44 22 17 20 36 48 84 95 74
0 0 0 0 0 0 0 0 0 0 0 0 0 0 0 0 0 0 0 0 0 20 90 72 85 174 234 189 150 150 138 87 56 37 18 12 42 30 58 74 75 91 94
CIN
-106 -102 -173 -215 -185 -72 -65 -42 -47 -30 -53 -35 -235 -154 -118 -84 -49 -53 -46 -93 -130 -147 -109 -91 -96 -91 -114 -168 -170 -127 -97 -69 -75 -96 -63 -28 -27 -16 -17 -8 -0 -0 -18
-143 -151 -143 -246 -186 -149 -64 -63 -72 -53 -43 -217 -207 -197 -160 -132 -104 -60 -49 -54 -86 -83 -98 -97 -98 -56 -62 -61 -67 -53 -36 -16 -25 -61 -54 -35 -24 -19 -19 -36 -31 -7 -5
-208 -176 -166 -131 -198 -155 -124 -49 -166 -79 -38 -24 -191 -189 -187 -179 -146 -135 -78 -51 -55 -62 -59 -62 -75 -77 -77 -63 -42 -27 -12 -4 -1 -18 -59 -84 -78 -74 -147 -154 -119 -37 -13
-243 -197 -141 -152 -158 -207 -158 -89 -40 -129 -73 -40 -133 -174 -140 -75 -175 -156 -142 -133 -99 -83 -73 -73 -71 -68 -72 -60 -50 -35 -18 -12 -8 -16 -52 -90 -169 -194 -183 -147 -158 -33 -14
-242 -218 -169 -144 -150 -205 -214 -178 -136 -57 -67 -130 -45 -48 -74 -102 -96 -178 -174 -167 -158 -153 -154 -97 -90 -89 -80 -72 -61 -68 -66 -58 -50 -67 -89 -104 -147 -143 -135 -156 -149 -45 -15
-299 -194 -138 -136 -156 -151 -161 -185 -188 -177 -103 -82 -173 -138 -137 -79 -94 -105 -102 -160 -157 -155 -156 -160 -191 -154 -152 -145 -120 -104 -92 -47 -64 -84 -80 -64 -87 -57 -86 -148 -62 -28 -39
-138 -268 -206 -163 -151 -142 -182 -160 -178 -279 -269 -159 -139 -200 -187 -182 -167 -129 -96 -82 -114 -159 -181 -174 -168 -152 -169 -206 -162 -143 -134 -115 -96 -65 -37 -70 -56 -107 -88 -79 -55 -4 -13
-67 -221 -279 -105 -162 -170 -159 -183 -216 -225 -258 -310 -321 -336 -296 -270 -282 -242 -185 -130 -119 -114 -161 -157 -156 -190 -187 -188 -172 -190 -202 -221 -192 -150 -117 -143 -103 -113 -66 -61 -25 -4 -2
-82 -70 -213 -234 -211 -177 -156 -160 -175 -156 -178 -226 -244 -279 -234 -336 -135 -301 -259 -212 -203 -193 -188 -197 -195 -199 -260 -220 -179 -218 -206 -190 -128 -101 -93 -88 -82 -67 -58 -15 -17 -11 -7
-63 -92 -104 -157 -165 -162 -155 -139 -140 -121 -144 -158 -166 -191 -127 -126 -109 -100 -96 -95 -152 -234 -245 -250 -267 -267 -264 -241 -180 -105 -85 -114 -76 -57 -55 -51 -50 -40 -7 -0 -18 -7 -0
-63 -65 -56 -71 -81 -90 -115 -139 -139 -140 -125 -122 -133 -162 -100 -93 -89 -113 -105 -83 -82 -76 -192 -206 -229 -112 -97 -85 -68 -48 -57 -34 -23 -15 -11 -19 -27 -22 -3 -26 -41 -1 -33
-159 -132 -116 -99 -94 -97 -99 -112 -81 -58 -57 -65 -104 -118 -106 -99 -83 -74 -78 -109 -78 -66 -55 -66 -61 -49 -40 -34 -31 -38 -20 -0 -2 -3 -3 -21 -27 -12 -7 -9 -11 -57 -42
-274 -214 -136 -88 -57 -58 -60 -31 -17 -51 -38 -26 -30 -51 -103 -98 -72 -58 -77 -49 -37 -17 -21 -14 -13 -15 -15 -18 -21 -20 -15 -15 -23 -24 -48 -64 -35 -24 -17 -5 -8 -18 -25
-289 -323 -295 -204 -109 -19 -3 -0 -0 -0 -0 -8 -11 -23 -36 -21 -30 -34 -38 -26 -18 -8 -5 -9 -10 -15 -10 -33 -13 -3 -15 -41 -75 -108 -91 -76 -63 -82 -31 -15 -8 -0 -16
-0 -0 -0 -225 -318 -197 -73 -45 -19 -1 -0 -0 -0 -6 -11 -11 -24 -40 -18 -10 -10 -15 -11 -7 -11 -10 -17 -15 -20 -28 -102 -126 -53 -49 -98 -85 -73 -73 -45 -15 -0 -1 -0
-0 -0 -0 -0 -199 -411 -356 -188 -52 -51 -5 -0 -0 -0 -0 -0 -0 -2 -0 -0 -0 -3 -0 -1 -6 -26 -26 -33 -36 -46 -29 -63 -57 -305 -68 -51 -52 -39 -33 -10 -0 -1 -1
-0 -0 -0 -0 -0 -0 -21 -392 -239 -93 -28 -1 -0 -1 -5 -2 -0 -0 -0 -0 -0 -0 -0 -0 -2 -5 -10 -31 -27 -77 -102 -274 -136 -20 -52 -47 -47 -68 -29 -21 -20 -0 -6
-0 -0 -0 -0 -0 -0 -0 -0 -452 -387 -128 -44 -8 -5 -12 -18 -15 -18 -16 -18 -10 -3 -1 -0 -0 -6 -0 -1 -63 -50 -183 -103 -125 -59 -71 -85 -40 -47 -34 -36 -51 -19 -7
-0 -0 -0 -0 -0 -0 -0 -0 -0 -77 -214 -211 -62 -21 -39 -32 -11 -10 -4 -14 -11 -13 -18 -18 -19 -0 -0 -0 -25 -62 -124 -56 -50 -48 -58 -72 -64 -26 -36 -39 -28 -71 -53
-0 -0 -0 -0 -0 -0 -0 -0 -0 -0 -0 -364 -178 -74 -36 -54 -41 -30 -35 -49 -41 -56 -43 -87 -70 -27 -6 -14 -61 -71 -66 -50 -56 -65 -47 -58 -61 -67 -37 -14 -17 -90 -105
-0 -0 -0 -0 -0 -0 -0 -0 -0 -0 -0 -0 -0 -114 -83 -77 -42 -45 -87 -88 -42 -42 -45 -61 -65 -124 -102 -86 -122 -107 -101 -82 -74 -72 -55 -28 -29 -34 -40 -33 -20 -71 -114
-0 -0 -0 -0 -0 -0 -0 -0 -0 -0 -0 -0 -0 -0 -0 -137 -48 -10 -8 -17 -20 -13 -17 -30 -69 -30 -23 -45 -93 -102 -67 -57 -49 -55 -67 -67 -37 -22 -57 -52 -71 -68 -96
-0 -0 -0 -0 -0 -0 -0 -0 -0 -0 -0 -0 -0 -0 -0 -0 -0 -18 -0 -0 -1 -1 -7 -35 -35 -8 -9 -19 -22 -42 -62 -45 -35 -34 -96 -103 -33 -51 -46 -44 -41 -64 -80
-0 -0 -0 -0 -0 -0 -0 -0 -0 -0 -0 -0 -0 -0 -0 -0 -0 -0 -9 -1 -0 -0 -0 -0 -0 -0 -0 -1 -4 -18 -31 -18 -14 -10 -22 -10 -53 -53 -65 -54 -31 -53 -68
-0 -0 -0 -0 -0 -0 -0 -0 -0 -0 -0 -0 -0 -0 -0 -0 -0 -0 -0 -19 -0 -0 -5 -0 -0 -3 -11 -4 -6 -8 -12 -0 -0 -0 -1 -0 -1 -6 -40 -55 -38 -25 -19
-0 -0 -0 -0 -0 -0 -0 -0 -0 -0 -0 -0 -0 -0 -0 -0 -0 -0 -0 -0 -0 -2 -1 -3 -0 -2 -1 -3 -9 -7 -4 -6 -3 -7 -9 -13 -1 -3 -4 -11 -35 -20 -15
Wind_Speed
12 13 13 13 14 17 18 17 14 15 13 12 10 10 11 11 13 15 14 15 13 14 16 14 13 14 13 13 16 18 19 21 19 24 29 32 34 30 29 30 30 35 38
14 14 13 15 15 14 16 16 17 15 16 14 14 11 10 11 13 15 16 17 15 15 15 18 16 19 18 18 19 20 23 26 24 17 25 28 34 37 34 31 29 32 39
8 12 16 15 13 12 14 19 20 20 19 17 16 15 13 13 15 16 17 17 17 17 18 20 21 22 23 24 23 22 25 29 32 28 23 29 29 34 35 32 33 33 38
10 9 6 11 14 15 16 18 20 23 23 21 18 18 17 18 17 19 20 18 18 19 19 20 21 23 23 24 25 25 25 26 29 29 25 24 28 30 36 35 31 38 37
16 14 8 7 10 19 20 18 19 21 20 22 24 23 23 21 20 19 20 20 19 20 21 21 21 21 22 24 26 26 27 26 26 25 23 23 24 25 30 34 35 35 38
24 22 18 12 8 7 16 20 18 17 20 23 21 22 24 24 21 21 23 23 22 20 19 22 23 22 19 21 25 22 22 23 21 25 22 22 17 22 26 31 35 38 38
25 17 23 29 13 6 10 13 15 15 19 20 21 23 21 22 24 23 25 26 26 24 22 23 23 24 24 22 25 27 25 30 33 29 24 26 26 28 30 34 39 42 44
28 23 25 18 17 7 13 10 11 16 18 18 18 21 21 21 23 24 27 29 28 25 25 25 25 22 25 29 29 28 29 30 33 37 36 31 34 34 37 35 38 43 42
31 27 28 25 8 11 9 9 12 17 17 18 20 22 21 18 23 24 32 31 28 24 24 26 26 24 23 33 33 28 29 27 35 40 39 40 38 39 40 41 41 42 41
34 30 31 29 26 24 18 14 14 15 14 18 17 19 19 18 23 26 33 32 28 26 22 21 24 23 22 30 35 33 32 31 36 38 41 40 40 38 42 40 40 42 42
32 27 31 30 26 26 27 25 15 13 13 14 14 18 21 20 18 24 31 29 27 26 26 24 26 29 28 28 40 38 37 37 38 41 41 41 44 41 39 41 42 43 42
32 38 41 38 33 35 23 20 12 13 15 17 19 16 19 22 21 21 25 29 27 27 23 23 25 26 28 29 38 36 36 37 40 42 43 43 45 45 43 42 40 41 40
41 48 48 43 36 32 31 28 24 21 21 21 23 22 25 17 19 22 22 24 23 24 23 22 23 26 27 28 30 32 36 38 38 39 41 46 52 45 46 45 42 41 40
nan nan 41 45 41 36 37 35 36 25 25 26 25 24 23 20 24 23 21 21 19 25 17 17 19 21 23 21 26 28 34 37 41 42 48 52 54 51 41 43 40 38 38
nan nan nan nan 40 38 38 35 33 34 37 34 31 32 29 25 22 25 23 25 25 23 25 23 23 22 22 24 25 28 33 37 42 47 53 57 59 58 39 39 36 35 35
nan nan nan nan nan nan nan 37 33 36 42 46 47 44 37 33 41 31 24 22 26 33 32 29 28 28 27 28 32 37 39 39 48 nan 59 58 41 31 38 38 34 31 33
nan nan nan nan nan nan nan nan 47 45 43 46 54 55 56 44 40 45 30 35 34 37 34 35 33 35 35 36 40 43 43 47 55 55 55 53 34 35 42 39 32 36 39
nan nan nan nan nan nan nan nan nan nan 58 56 56 55 54 51 48 38 40 44 47 46 44 40 38 40 41 41 45 45 45 53 55 54 54 50 41 37 33 38 42 39 26
nan nan nan nan nan nan nan nan nan nan nan 64 60 59 55 53 52 51 51 51 50 52 51 47 48 48 48 46 46 46 48 49 53 52 46 42 38 31 32 28 39 40 25
nan nan nan nan nan nan nan nan nan nan nan nan 64 64 58 54 59 59 60 63 63 60 57 60 57 54 57 53 53 51 52 50 46 41 33 31 32 30 29 38 37 28 21
nan nan nan nan nan nan nan nan nan nan nan nan nan nan 64 61 58 58 61 64 67 67 66 65 66 59 58 57 52 49 51 47 46 44 35 35 37 34 29 26 28 28 nan
nan nan nan nan nan nan nan nan nan nan nan nan nan nan nan nan 63 63 62 63 65 68 68 70 69 68 66 63 54 50 50 46 42 35 38 42 38 34 nan 24 nan nan nan
nan nan nan nan nan nan nan nan nan nan nan nan nan nan nan nan nan 66 67 66 65 65 65 66 66 66 65 63 58 54 50 46 38 nan nan nan 43 nan nan nan nan 30 28
nan nan nan nan nan nan nan nan nan nan nan nan nan nan nan nan nan nan nan 67 68 67 64 62 61 64 62 60 57 54 53 48 42 nan nan nan nan nan nan nan nan nan 27
nan nan nan nan nan nan nan nan nan nan nan nan nan nan nan nan nan nan nan nan 65 65 67 64 62 63 63 63 61 56 50 48 48 41 nan nan nan nan nan nan nan nan nan
nan nan nan nan nan nan nan nan nan nan nan nan nan nan nan nan nan nan nan nan nan nan nan nan nan 65 64 62 60 56 52 nan nan nan nan nan nan nan nan nan nan nan nan
Wind_Direction
207 208 199 198 208 209 204 198 202 205 216 220 211 220 213 215 224 231 228 231 231 229 240 251 253 270 274 282 291 296 302 309 316 311 319 320 325 339 346 345 353 357 358
233 223 215 220 217 210 218 214 213 214 220 228 228 221 231 229 232 236 239 240 244 246 253 262 262 268 282 286 288 298 302 308 310 314 306 312 328 330 341 342 343 354 352
270 245 232 227 231 225 211 221 223 223 221 226 237 236 232 244 243 240 244 249 252 255 261 269 272 275 275 282 287 290 295 302 309 313 317 323 327 321 327 340 340 348 351
271 276 262 240 237 234 229 222 228 231 230 229 230 240 243 248 258 264 263 255 254 257 263 267 272 282 282 283 287 294 298 306 312 320 327 332 334 331 330 336 342 341 343
238 245 253 244 242 243 241 236 227 236 239 236 236 235 238 244 251 259 265 268 270 269 271 275 277 284 295 299 291 295 304 309 312 316 323 329 332 329 328 327 336 335 335
254 236 226 230 241 269 260 255 248 238 242 247 245 244 244 240 251 265 263 263 266 270 271 272 277 286 294 308 313 320 316 311 317 318 326 330 342 325 328 330 332 329 331
256 256 258 211 193 246 249 265 271 262 253 254 257 254 251 253 258 262 269 262 266 269 273 276 279 285 296 296 303 316 320 326 337 323 326 329 328 325 330 332 330 330 331
257 259 278 269 191 235 269 281 268 268 269 262 256 264 265 260 269 275 279 270 267 270 276 280 287 291 296 299 300 302 304 308 312 315 325 329 325 324 330 331 325 323 321
250 253 253 256 246 255 257 264 268 260 262 268 267 268 269 266 277 279 272 269 272 274 276 282 289 294 298 304 296 296 294 304 302 320 328 328 324 317 322 319 320 320 324
238 233 237 239 240 241 241 250 254 260 267 271 275 275 282 281 280 282 281 274 279 279 279 283 295 296 292 291 292 292 299 304 302 306 308 310 313 313 321 328 320 321 320
233 238 239 233 241 244 256 247 246 263 267 277 287 291 285 275 275 287 291 282 281 278 278 277 279 296 302 299 302 302 309 304 304 303 303 305 304 304 307 314 316 315 318
238 239 237 235 232 239 259 236 242 276 284 288 278 275 276 275 278 275 285 297 287 281 282 281 285 302 307 312 308 319 321 312 306 306 304 301 299 301 303 306 308 310 311
231 234 233 231 238 240 255 252 246 260 277 279 277 278 272 259 275 282 275 290 304 292 290 294 300 296 299 300 314 316 313 308 306 307 307 304 299 296 295 298 298 301 303
nan nan 235 236 238 240 243 242 229 249 275 275 278 273 270 277 284 290 291 283 293 292 302 293 297 298 297 292 290 303 311 316 315 319 317 299 293 292 292 294 295 299 302
nan nan nan nan 241 242 243 239 237 239 255 259 265 269 269 260 272 277 280 277 283 290 286 290 298 303 306 305 303 302 299 307 319 316 319 310 304 281 292 289 289 293 298
nan nan nan nan nan nan nan 227 227 241 248 256 257 260 256 248 244 248 252 265 271 278 279 288 294 296 295 298 303 306 310 312 316 nan 315 313 304 289 288 286 285 287 291
nan nan nan nan nan nan nan nan 250 255 251 258 254 253 252 251 240 241 239 245 255 267 272 277 282 290 297 302 303 307 313 312 315 315 311 306 289 289 284 281 278 274 284
nan nan nan nan nan nan nan nan nan nan 265 267 261 254 245 243 247 251 250 252 257 262 265 273 279 285 287 291 296 302 309 310 315 315 314 311 288 286 305 312 298 279 278
nan nan nan nan nan nan nan nan nan nan nan 264 263 258 245 242 246 253 255 259 253 256 264 267 271 275 281 285 292 298 303 310 313 313 312 313 305 306 302 309 309 291 267
nan nan nan nan nan nan nan nan nan nan nan nan 254 251 249 250 250 249 253 255 257 258 257 261 263 265 271 282 282 286 294 302 307 314 313 313 306 307 299 298 297 280 268
nan nan nan nan nan nan nan nan nan nan nan nan nan nan 246 252 251 252 253 254 257 258 260 263 267 271 272 273 279 281 283 290 294 297 311 308 308 298 303 298 291 282 nan
nan nan nan nan nan nan nan nan nan nan nan nan nan nan nan nan 252 252 254 255 255 257 259 261 264 266 268 270 270 273 274 278 284 290 293 296 297 297 nan 289 nan nan nan
nan nan nan nan nan nan nan nan nan nan nan nan nan nan nan nan nan 257 257 257 257 258 258 260 262 264 265 266 268 268 271 270 274 nan nan nan 292 nan nan nan nan 278 277
nan nan nan nan nan nan nan nan nan nan nan nan nan nan nan nan nan nan nan 261 260 259 260 260 260 259 261 263 264 263 264 265 270 nan nan nan nan nan nan nan nan nan 265
nan nan nan nan nan nan nan nan nan nan nan nan nan nan nan nan nan nan nan nan 263 262 259 258 259 259 259 258 257 256 255 258 262 260 nan nan nan nan nan nan nan nan nan
nan nan nan nan nan nan nan nan nan nan nan nan nan nan nan nan nan nan nan nan nan nan nan nan nan 256 255 256 254 254 255 nan nan nan nan nan nan nan nan nan nan nan nan